Location: S�deilles
(46.7500°N, 6.9329°E)
Time: 08:59:12
(UTC+00:00)

Cosmos 1980 - Pass Details

Date: 08 March 2021
Orbit: 839 x 848 km, 71.0° (Epoch: 14 April)

Event Time Altitude Azimuth Distance (km) Brightness Sun altitude
Rises 19:53:33 0° 210° (SSW) 3,378 6.9 -25.2°
Reaches altitude 10° 19:56:00 10° 212° (SSW) 2,448 6.2 -25.6°
Maximum altitude 20:01:37 75° 298° (WNW) 871 3.8 -26.5°
Drops below altitude 10° 20:07:17 10° 24° (NNE) 2,466 6.1 -27.4°
Sets 20:09:45 0° 26° (NNE) 3,406 6.9 -27.8°
